sat.trackr.live / text

‹ back to catalog

STARLINK-31902

NORAD 59666 · 2024-084N

PAYLOAD ACTIVE UNKNOWN

§ Identity

Operator
Country
US
Launch date
2024-05-06
Launch site
AFETR
Launch vehicle
Mass (kg)
RCS (m²)

Purposes: comms

External: N2YO · Heavens-Above · Gunter

§ Orbital elements

Epoch: 2026-05-24T22:51:58.865760Z

Period
94.27 min
Inclination
43.0024°
Eccentricity
0.0001162
Mean motion
15.27573473 rev/d
Perigee alt
482.3 km
Apogee alt
483.9 km
Semi-major
6,861.2 km
B*
-1.6890e-5
RAAN
331.3576°
Arg perigee
272.0115°
Mean anomaly
88.0603°
Rev number
11,603

§ Raw data

STARLINK-319021 59666U 24084N   26144.95276465 -.00000727  00000+0 -16890-4 0  99962 59666  43.0024 331.3576 0001162 272.0115  88.0603 15.27573473116033

JSON: /api/v1/satellites/59666 · /tle

For live sub-satellite position, see the globe view (requires WebGL).

§ Visibility from observer

Set your observer location to see the next 7 days of passes ≥ 10°. The values pass through the URL so the page stays shareable.

No JS? Fill the form by hand. The geolocation button needs JavaScript.